STARLINK-1357, 45565

Orbit data source: Space-Track

STARLINK-1357, 45565 is a payload satellite owned by SpaceX/Seattle (US) in LEO that was launched on Wed, 22 Apr 2020 UTC via an FALCON 9 launch vehicle from the Air Force Eastern Test Range (AFETR). Payload-class satellites include a variety of spacecraft equipped with specific instruments for various scientific and technological missions. These include communications satellites like Starlink; space stations such as the ISS; scientific satellites like the Hubble; Earth observation satellites from companies like Planet Labs, Umbra, and HawkEye 360; GPS; miniature CubeSats for education and research; and military/defense satellites.

Loading next visibility...
Identifier
45565, 2020-025AL
Orbit
LEO
Last TLE update
6 hours ago
Origin
Manufacturer
SpaceX/Seattle
Mission
Operational Commercial Communications
Bus & Motor
STARLINK, Unknown motor
Mass
260 kg wet, ~248 kg dry
Launch date (UTC)
2020-04-22 (5 years ago)
Launch vehicle
FALCON 9
Launch site
Air Force Eastern Test Range (AFETR)
Object type
Payload
Rocket body
Debris
Shape & HBR
Box + 1 Pan, 8.86 m
Radar Cross Section
13.562 m², Large (>1 m²)

Expand to show TLE details & history

TLE from 6 hours ago
0 STARLINK-1357
1 45565U 20025AL  25129.06759297  .00003438  00000-0  24953-3 0  9992
2 45565  53.0547  14.1199 0001476  96.5652 263.5505 15.06410458278868
Epoch: 2025-05-09T01:37Z
Definitive object data (Epoch: 2025-05-09T01:37:20.032Z)
Latitude
-0.00003°
Longitude
122.65736°
Altitude
548.174 km
Speed
7.589 km/s
True Right ascension
00h 56m 28s
True Declination
0° 00' 00"
Sunlit
Object was in daylight at TLE epoch
Visualization TLE readout
Latitude
12.90952°
Longitude
-68.24286°
Altitude
546.888 km
Speed
7.591 km/s
Apparent Right ascension
09h 06m 59s
Apparent Declination
-27° 34' 55"
Sunlit
Object is in full shadow
Visualization observer readout
Local Sidereal Time
15:16:19
Azimuth
249.451° W
Elevation
-18.951°
Doppler factor
1
Orbital elements
Apogee altitude
548.472 km
Perigee altitude
546.428 km
Semi-major axis
6,925.587 km
Eccentricity
0.0001476
Inclination
53.0547°
RAAN
14.1199°
Arg. of periapsis
96.5652°
True anomaly
263.53369°
Mean anomaly
263.5505°
Eccentric anomaly
263.5421°
Mean motion
3.76581 °/min
BSTAR
0.00024953
Orbital period
95.6 mins
Loading maneuver chart data...
Loading SW <> Apogee altitude chart data...
Loading historical data...
Loading historical data...
Loading historical data...
Loading historical data...
Loading historical data...
Loading historical data...
Loading historical data...

STARLINK-1357 Visibility forecast

Observer location: undefined°, undefined°

Span
Click to sort rows by Start time (UTC) header in descending order
Start Az.
Max El. time (UTC)
Max El. Az.
Max El.
End time (UTC)
End Az.
5 mins2025-05-09 17:41:22.564Z165.036° S2025-05-09 17:44:22.564Z117.753° SE15.404°2025-05-09 17:46:22.564Z88.28° E
6 mins2025-05-09 19:20:22.564Z242.306° WSW2025-05-09 19:23:22.564Z0.761° NNE41.744°2025-05-09 19:26:22.564Z44.704° NE
4 mins2025-05-09 21:01:22.564Z310.389° NW2025-05-09 21:03:22.564Z346.53° N17.549°2025-05-09 21:05:22.564Z19.569° NNE
5 mins2025-05-10 00:22:22.564Z339.899° N2025-05-10 00:24:22.564Z17.087° NNE22.113°2025-05-10 00:27:22.564Z73.621° E
6 mins2025-05-10 02:02:22.564Z300.041° NW2025-05-10 02:04:22.564Z239.625° WSW42.91°2025-05-10 02:08:22.564Z140.04° SSE
|